AZG7757 LTFJ-LTBJ

Flight info

Callsign AZG7757
Flight time 0h 42m
Altitude 30000
Route IVGUS1J/06L IVGUS UM19 OVZOK
Aircraft B77L/H-SDE1E2E3FGHIJ2J3J4J5M1RWXY/LB1D1

Departure

Time 2026-04-27 20:40
Airport Istanbul Sabiha Gökçen International Airport (LTFJ)

Arrival

Time 2026-04-27 21:23
Airport Adnan Menderes International Airport (LTBJ)
Time Latitude Longitude Altitude Speed Heading
2026-04-27 20:18 40.89594 29.30917 328 ft 0 kts 154°
2026-04-27 20:31 40.89605 29.30910 328 ft 2 kts 162°
2026-04-27 20:31 40.89620 29.30906 328 ft 2 kts 174°
2026-04-27 20:31 40.89635 29.30905 328 ft 2 kts 184°
2026-04-27 20:31 40.89650 29.30908 328 ft 2 kts 194°
2026-04-27 20:32 40.89664 29.30915 328 ft 2 kts 205°
2026-04-27 20:32 40.89677 29.30924 328 ft 2 kts 216°
2026-04-27 20:32 40.89688 29.30937 328 ft 2 kts 226°
2026-04-27 20:32 40.89698 29.30952 328 ft 2 kts 236°
2026-04-27 20:33 40.89704 29.30966 328 ft 0 kts 244°
2026-04-27 20:33 40.89705 29.30968 328 ft 0 kts 245°
2026-04-27 20:34 40.89705 29.30967 328 ft 0 kts 245°
2026-04-27 20:35 40.89702 29.30959 328 ft 2 kts 244°
2026-04-27 20:35 40.89692 29.30933 328 ft 4 kts 244°
2026-04-27 20:35 40.89671 29.30876 328 ft 9 kts 243°
2026-04-27 20:35 40.89640 29.30786 328 ft 9 kts 256°
2026-04-27 20:36 40.89675 29.30720 328 ft 10 kts 335°
2026-04-27 20:36 40.89751 29.30672 328 ft 13 kts 334°
2026-04-27 20:36 40.89816 29.30566 328 ft 17 kts 282°
2026-04-27 20:36 40.89827 29.30395 328 ft 19 kts 274°
2026-04-27 20:37 40.89805 29.30222 328 ft 19 kts 246°
2026-04-27 20:37 40.89749 29.30063 328 ft 19 kts 243°
2026-04-27 20:37 40.89691 29.29907 328 ft 18 kts 243°
2026-04-27 20:37 40.89634 29.29752 328 ft 18 kts 245°
2026-04-27 20:38 40.89577 29.29599 328 ft 18 kts 244°
2026-04-27 20:38 40.89521 29.29446 328 ft 18 kts 244°
2026-04-27 20:38 40.89468 29.29299 328 ft 13 kts 244°
2026-04-27 20:38 40.89422 29.29247 328 ft 8 kts 181°
2026-04-27 20:39 40.89361 29.29276 329 ft 10 kts 154°
2026-04-27 20:39 40.89291 29.29327 329 ft 10 kts 128°
2026-04-27 20:39 40.89298 29.29410 329 ft 8 kts 66°
2026-04-27 20:39 40.89368 29.29601 329 ft 55 kts 63°
2026-04-27 20:40 40.89648 29.30362 328 ft 130 kts 64°
2026-04-27 20:40 40.90100 29.31664 780 ft 168 kts 65°
2026-04-27 20:40 40.90554 29.33038 2018 ft 167 kts 63°
2026-04-27 20:40 40.91093 29.34353 2927 ft 174 kts 62°
2026-04-27 20:41 40.91660 29.35823 3655 ft 192 kts 63°
2026-04-27 20:41 40.92268 29.37478 4401 ft 210 kts 63°
2026-04-27 20:41 40.92781 29.39337 5209 ft 228 kts 79°
2026-04-27 20:41 40.92727 29.41507 5984 ft 250 kts 103°
2026-04-27 20:42 40.91909 29.43601 6852 ft 268 kts 129°
2026-04-27 20:42 40.90383 29.45054 7794 ft 280 kts 154°
2026-04-27 20:42 40.88593 29.46055 8877 ft 285 kts 156°
2026-04-27 20:42 40.86755 29.47077 9892 ft 291 kts 161°
2026-04-27 20:43 40.84768 29.47519 10721 ft 302 kts 180°
2026-04-27 20:43 40.82653 29.47010 11395 ft 320 kts 202°
2026-04-27 20:43 40.80763 29.45426 12222 ft 331 kts 225°
2026-04-27 20:43 40.79244 29.43110 13364 ft 334 kts 232°
2026-04-27 20:44 40.77773 29.40751 14541 ft 338 kts 231°
2026-04-27 20:44 40.76243 29.38412 15671 ft 343 kts 230°
2026-04-27 20:44 40.74667 29.36076 16811 ft 347 kts 229°
2026-04-27 20:44 40.73053 29.33708 17951 ft 351 kts 229°
2026-04-27 20:45 40.71405 29.31299 19052 ft 356 kts 229°
2026-04-27 20:45 40.69752 29.28887 20125 ft 359 kts 229°
2026-04-27 20:45 40.68087 29.26460 21170 ft 363 kts 229°
2026-04-27 20:45 40.66402 29.24006 22178 ft 367 kts 229°
2026-04-27 20:46 40.64671 29.21486 23149 ft 372 kts 229°
2026-04-27 20:46 40.62934 29.18960 24076 ft 377 kts 229°
2026-04-27 20:46 40.61182 29.16414 24923 ft 382 kts 230°
2026-04-27 20:46 40.59389 29.13811 25773 ft 387 kts 230°
2026-04-27 20:47 40.57584 29.11193 26612 ft 392 kts 230°
2026-04-27 20:47 40.55758 29.08547 27435 ft 397 kts 230°
2026-04-27 20:47 40.53880 29.05828 28274 ft 401 kts 230°
2026-04-27 20:47 40.52014 29.03129 29078 ft 406 kts 230°
2026-04-27 20:48 40.50109 29.00375 29865 ft 409 kts 230°
2026-04-27 20:48 40.48848 28.98554 30105 ft 409 kts 230°
2026-04-27 20:48 40.44394 28.92134 30155 ft 405 kts 230°
2026-04-27 20:49 40.40569 28.86630 30157 ft 406 kts 230°
2026-04-27 20:49 40.36748 28.81140 30157 ft 407 kts 230°
2026-04-27 20:50 40.32933 28.75669 30155 ft 406 kts 230°
2026-04-27 20:50 40.29119 28.70209 30151 ft 407 kts 230°
2026-04-27 20:51 40.25285 28.64731 30152 ft 407 kts 230°
2026-04-27 20:51 40.21463 28.59281 30157 ft 406 kts 230°
2026-04-27 20:52 40.17666 28.53875 30153 ft 404 kts 231°
2026-04-27 20:52 40.13868 28.48477 30156 ft 404 kts 230°
2026-04-27 20:53 40.10064 28.43080 30154 ft 405 kts 231°
2026-04-27 20:53 40.06219 28.37635 30153 ft 406 kts 231°
2026-04-27 20:54 40.00500 28.29554 30157 ft 407 kts 230°
2026-04-27 20:55 39.96661 28.24142 30156 ft 406 kts 230°
2026-04-27 20:55 39.92816 28.18730 30156 ft 406 kts 230°
2026-04-27 20:55 39.90876 28.16002 30163 ft 418 kts 230°
2026-04-27 20:56 39.88848 28.13149 30169 ft 432 kts 230°
2026-04-27 20:56 39.84759 28.07419 29838 ft 423 kts 230°
2026-04-27 20:56 39.82769 28.04636 29581 ft 413 kts 230°
2026-04-27 20:57 39.80840 28.01940 29321 ft 403 kts 230°
2026-04-27 20:57 39.78945 27.99293 29064 ft 397 kts 230°
2026-04-27 20:57 39.77065 27.96666 28809 ft 398 kts 230°
2026-04-27 20:57 39.75181 27.94036 28550 ft 398 kts 230°
2026-04-27 20:58 39.73316 27.91436 28293 ft 396 kts 230°
2026-04-27 20:58 39.71433 27.88813 28034 ft 394 kts 230°
2026-04-27 20:58 39.69578 27.86231 27776 ft 393 kts 230°
2026-04-27 20:58 39.67704 27.83624 27520 ft 392 kts 230°
2026-04-27 20:59 39.65840 27.81035 27263 ft 390 kts 230°
2026-04-27 20:59 39.63990 27.78466 27005 ft 389 kts 230°
2026-04-27 20:59 39.62146 27.75908 26748 ft 389 kts 230°
2026-04-27 20:59 39.60326 27.73385 26494 ft 387 kts 230°
2026-04-27 21:00 39.58492 27.70845 26237 ft 386 kts 230°
2026-04-27 21:00 39.56650 27.68298 25979 ft 385 kts 230°
2026-04-27 21:00 39.54822 27.65770 25721 ft 384 kts 230°
2026-04-27 21:00 39.53004 27.63259 25458 ft 382 kts 230°
2026-04-27 21:01 39.51206 27.60778 25201 ft 381 kts 230°
2026-04-27 21:01 39.49412 27.58304 25091 ft 374 kts 230°
2026-04-27 21:01 39.47562 27.55750 24988 ft 396 kts 230°
2026-04-27 21:01 39.45694 27.53178 24766 ft 392 kts 230°
2026-04-27 21:02 39.43856 27.50652 24459 ft 383 kts 230°
2026-04-27 21:02 39.42051 27.48173 24149 ft 376 kts 230°
2026-04-27 21:02 39.40275 27.45736 23843 ft 373 kts 229°
2026-04-27 21:02 39.38331 27.43515 23526 ft 374 kts 219°
2026-04-27 21:03 39.36087 27.41770 23205 ft 376 kts 208°
2026-04-27 21:03 39.33660 27.40570 22893 ft 377 kts 200°
2026-04-27 21:03 39.31149 27.39585 22581 ft 376 kts 200°
2026-04-27 21:03 39.28657 27.38630 22280 ft 374 kts 199°
2026-04-27 21:04 39.26174 27.37685 21980 ft 373 kts 199°
2026-04-27 21:04 39.23671 27.36737 21672 ft 372 kts 199°
2026-04-27 21:04 39.21214 27.35812 21364 ft 370 kts 199°
2026-04-27 21:04 39.18732 27.34881 21045 ft 368 kts 198°
2026-04-27 21:05 39.16289 27.33967 20748 ft 367 kts 199°
2026-04-27 21:05 39.13840 27.33052 20448 ft 366 kts 198°
2026-04-27 21:05 39.11384 27.32135 20135 ft 365 kts 198°
2026-04-27 21:05 39.08938 27.31224 19756 ft 364 kts 198°
2026-04-27 21:06 39.06515 27.30322 19391 ft 361 kts 198°
2026-04-27 21:06 39.04117 27.29431 19015 ft 359 kts 198°
2026-04-27 21:06 39.01733 27.28545 18636 ft 357 kts 198°
2026-04-27 21:06 38.99341 27.27657 18251 ft 355 kts 198°
2026-04-27 21:07 38.96967 27.26776 17880 ft 355 kts 198°
2026-04-27 21:07 38.94614 27.25903 17504 ft 353 kts 198°
2026-04-27 21:07 38.92257 27.25030 17129 ft 352 kts 198°
2026-04-27 21:07 38.89920 27.24165 16769 ft 351 kts 198°
2026-04-27 21:08 38.87516 27.23426 16380 ft 351 kts 188°
2026-04-27 21:08 38.85090 27.23287 16008 ft 351 kts 181°
2026-04-27 21:08 38.82645 27.23298 15620 ft 351 kts 181°
2026-04-27 21:08 38.80206 27.23324 15248 ft 349 kts 181°
2026-04-27 21:09 38.77779 27.23349 15095 ft 346 kts 180°
2026-04-27 21:09 38.75378 27.23372 15049 ft 349 kts 180°
2026-04-27 21:09 38.72946 27.23395 15022 ft 347 kts 180°
2026-04-27 21:09 38.70518 27.23418 15028 ft 348 kts 180°
2026-04-27 21:10 38.68151 27.23358 15012 ft 335 kts 189°
2026-04-27 21:10 38.65885 27.22750 15017 ft 327 kts 196°
2026-04-27 21:10 38.63726 27.22004 15018 ft 324 kts 197°
2026-04-27 21:10 38.61555 27.21229 15020 ft 322 kts 197°
2026-04-27 21:11 38.59381 27.20453 14893 ft 324 kts 197°
2026-04-27 21:11 38.57216 27.19684 14600 ft 321 kts 197°
2026-04-27 21:11 38.55046 27.19176 14278 ft 320 kts 180°
2026-04-27 21:11 38.52840 27.19513 13958 ft 321 kts 169°
2026-04-27 21:12 38.50635 27.20135 13653 ft 321 kts 167°
2026-04-27 21:12 38.48484 27.20789 13351 ft 320 kts 167°
2026-04-27 21:12 38.46333 27.21443 13050 ft 318 kts 166°
2026-04-27 21:12 38.44191 27.22090 12751 ft 316 kts 167°
2026-04-27 21:13 38.42028 27.22742 12431 ft 314 kts 167°
2026-04-27 21:13 38.39923 27.23374 12152 ft 312 kts 166°
2026-04-27 21:13 38.37807 27.24009 11841 ft 310 kts 166°
2026-04-27 21:13 38.35719 27.24636 11542 ft 308 kts 166°
2026-04-27 21:14 38.33637 27.25260 11248 ft 307 kts 166°
2026-04-27 21:14 38.31556 27.25884 10954 ft 306 kts 167°
2026-04-27 21:14 38.29495 27.26501 10612 ft 306 kts 167°
2026-04-27 21:14 38.27419 27.27122 10243 ft 304 kts 167°
2026-04-27 21:15 38.25386 27.27730 9879 ft 303 kts 167°
2026-04-27 21:15 38.23336 27.28343 9477 ft 303 kts 167°
2026-04-27 21:15 38.21286 27.28955 9008 ft 304 kts 167°
2026-04-27 21:15 38.19215 27.29573 8504 ft 303 kts 166°
2026-04-27 21:16 38.17192 27.30177 8038 ft 301 kts 166°
2026-04-27 21:16 38.15153 27.30785 7597 ft 297 kts 166°
2026-04-27 21:16 38.13162 27.31379 7152 ft 294 kts 166°
2026-04-27 21:16 38.11148 27.31674 6692 ft 292 kts 186°
2026-04-27 21:17 38.09242 27.30892 6238 ft 288 kts 211°
2026-04-27 21:17 38.07787 27.29211 5824 ft 283 kts 235°
2026-04-27 21:17 38.06975 27.27031 5559 ft 268 kts 261°
2026-04-27 21:17 38.07054 27.24783 5312 ft 250 kts 289°
2026-04-27 21:18 38.07920 27.22985 5059 ft 239 kts 313°
2026-04-27 21:18 38.09238 27.21795 4796 ft 228 kts 339°
2026-04-27 21:18 38.10688 27.21220 4450 ft 211 kts 346°
2026-04-27 21:18 38.12074 27.20790 4068 ft 200 kts 348°
2026-04-27 21:19 38.13394 27.20408 3592 ft 190 kts 349°
2026-04-27 21:19 38.14656 27.20043 3123 ft 180 kts 349°
2026-04-27 21:19 38.15817 27.19703 2885 ft 167 kts 349°
2026-04-27 21:20 38.18004 27.19054 2437 ft 156 kts 349°
2026-04-27 21:20 38.19053 27.18741 2219 ft 155 kts 348°
2026-04-27 21:20 38.20100 27.18427 1999 ft 154 kts 348°
2026-04-27 21:20 38.21137 27.18117 1782 ft 147 kts 348°
2026-04-27 21:21 38.22092 27.17831 1583 ft 138 kts 348°
2026-04-27 21:21 38.23018 27.17561 1392 ft 134 kts 348°
2026-04-27 21:21 38.23925 27.17283 1190 ft 133 kts 348°
2026-04-27 21:21 38.24829 27.17015 1012 ft 132 kts 348°
2026-04-27 21:22 38.25719 27.16744 826 ft 131 kts 348°
2026-04-27 21:22 38.26613 27.16481 652 ft 131 kts 348°
2026-04-27 21:22 38.27491 27.16218 477 ft 131 kts 347°
2026-04-27 21:22 38.28359 27.15960 400 ft 112 kts 347°
2026-04-27 21:23 38.28897 27.15798 409 ft 46 kts 347°
2026-04-27 21:23 38.29145 27.15723 413 ft 33 kts 346°
2026-04-27 21:23 38.29312 27.15672 415 ft 15 kts 347°
2026-04-27 21:23 38.29412 27.15639 416 ft 7 kts 326°
2026-04-27 21:24 38.29419 27.15583 415 ft 8 kts 257°
2026-04-27 21:24 38.29402 27.15496 412 ft 12 kts 256°
2026-04-27 21:24 38.29383 27.15446 412 ft 3 kts 240°
2026-04-27 21:24 38.29374 27.15378 411 ft 7 kts 269°
2026-04-27 21:25 38.29367 27.15302 409 ft 11 kts 258°
2026-04-27 21:25 38.29346 27.15191 408 ft 13 kts 256°
2026-04-27 21:25 38.29284 27.15144 410 ft 11 kts 170°
2026-04-27 21:25 38.29205 27.15171 414 ft 12 kts 166°
2026-04-27 21:26 38.29130 27.15195 417 ft 9 kts 166°
2026-04-27 21:26 38.29061 27.15215 419 ft 11 kts 167°
2026-04-27 21:26 38.29010 27.15277 418 ft 11 kts 126°
2026-04-27 21:26 38.28933 27.15321 416 ft 13 kts 163°
2026-04-27 21:27 38.28872 27.15322 415 ft 5 kts 234°
2026-04-27 21:27 38.28868 27.15312 415 ft 0 kts 251°
2026-04-27 21:27 38.28867 27.15309 415 ft 0 kts 251°
2026-04-27 21:27 38.28867 27.15308 415 ft 0 kts 251°
2026-04-27 21:29 38.28867 27.15305 416 ft 2 kts 254°
2026-04-27 21:30 38.28863 27.15283 416 ft 2 kts 258°
2026-04-27 21:30 38.28859 27.15258 416 ft 2 kts 257°
2026-04-27 21:30 38.28857 27.15251 416 ft 0 kts 257°
2026-04-27 21:30 38.28856 27.15246 416 ft 0 kts 257°
2026-04-27 21:31 38.28856 27.15241 417 ft 1 kts 257°
2026-04-27 21:31 38.28855 27.15239 417 ft 0 kts 257°
2026-04-27 21:31 38.28854 27.15234 417 ft 0 kts 257°